Home   Weather   Laval   Past weeks

Flag for Canada Past Weather in Laval, Quebec, Canada — Yesterday and Last 2 Weeks

36 °F

Broken clouds.

Feels Like: 29 °F
Forecast: 33 / 43 °F
Wind: 9 mph from West

Location: Montreal / Mirabel

Current Time: Oct 25, 2016 at 9:54:56 AM

Latest Report: Oct 25, 2016 at 9:00 AM

Visibility: 45 mi

Pressure: 30.11 "Hg

Humidity: 75%

Dew Point: 28 °F

Location of LavalLocation

Past Weather in Laval — Graph


Laval Temperature Yesterday

Maximum temperature yesterday: 43 °F (at 11:00 AM)
Minimum temperature yesterday: 37 °F (at 4:00 AM)
Average temperature yesterday: 40 °F

High & Low Weather Summary for the Past Weeks

High72 °F (Oct 18, 7:00 PM)100% (Oct 11, 2:00 AM)30.47 "Hg (Oct 11, 2:00 AM)
Low28 °F (Oct 14, 6:00 AM)38% (Oct 10, 5:00 PM)29.32 "Hg (Oct 22, 8:00 PM)
Average47 °F81%29.98 "Hg
* Reported Oct 10 8:00 AM — Oct 25 8:00 AM, Laval, Weather by CustomWeather, © 2016

Note: Actual official high and low records may vary slightly from our data, if they occured in-between our weather recording intervals... More about our weather records


Laval Weather History for the Previous 24 Hours

Scroll right to see more
Time TempWeatherWind HumidityBarometerVisibility
8:00 AM
Tue, Oct 25
36 °FBroken clouds.9 mph75%30.09 "Hg45 mi
7:00 AM36 °FMostly cloudy.8 mph70%30.06 "Hg25 mi
6:00 AM36 °FPartly cloudy.7 mph70%30.06 "Hg25 mi
5:00 AM36 °FMostly cloudy.7 mph70%30.04 "Hg25 mi
4:00 AM36 °FMostly cloudy.7 mph70%30.03 "Hg25 mi
3:00 AM36 °FMostly cloudy.5 mph70%30.02 "Hg25 mi
2:00 AM37 °FMostly cloudy.5 mph60%30.02 "Hg25 mi
1:00 AM37 °FMostly cloudy.7 mph65%30.01 "Hg25 mi
12:00 AM37 °FMostly cloudy.6 mph65%30.01 "Hg25 mi
11:00 PM
Mon, Oct 24
37 °FOvercast.7 mph65%30.01 "Hg25 mi
10:00 PM37 °FOvercast.6 mph65%30.00 "Hg25 mi
9:00 PM39 °FOvercast.9 mph61%29.98 "Hg25 mi
8:00 PM39 °FOvercast.6 mph61%29.98 "Hg25 mi
7:00 PM41 °FPartly cloudy.7 mph61%29.96 "Hg25 mi
6:10 PM41 °FPartly cloudy.10 mph57%29.94 "Hg25 mi
5:00 PM41 °FSprinkles. Partly sunny.7 mph61%29.92 "Hg45 mi
4:00 PM43 °FSprinkles. Broken clouds.12 mph53%29.89 "Hg45 mi
3:00 PM43 °FSprinkles. Partly sunny.10 mph53%29.87 "Hg45 mi
2:00 PM43 °FPartly sunny.12 mph53%29.85 "Hg45 mi
1:53 PM43 °FSprinkles. Partly sunny.12 mph57%29.85 "Hg45 mi
1:00 PM43 °FPartly sunny.10 mph57%29.85 "Hg45 mi
12:00 PM41 °FSprinkles. Broken clouds.12 mph70%29.84 "Hg30 mi
11:01 AM41 °FSprinkles. Broken clouds.17 mph66%29.82 "Hg35 mi
11:00 AM43 °FBroken clouds.17 mph61%29.82 "Hg45 mi
10:00 AM41 °FScattered showers. Broken clouds.10 mph70%29.82 "Hg45 mi
9:00 AM39 °FPartly sunny.12 mph81%29.80 "Hg45 mi
Weather by CustomWeather, © 2016

See weather overviewHow to use our weather pages